Wind_Speed
5 3 4 5 6 7 7 7 9 8 7 8 7 8 9 9 8 9 11 13 15 11 9 13 14 16 18 17 17 17 15 15 14 13 12 12 11 11 10 10 10 9 8 12 20 25 27 29 29 29 28 28 28 28 28 25 24 23 22 23 22 21 19 18 18 19 19 18 17 16 16 15 15 14 14 14 14 14 11 9 10 10 9 8 6 5
4 5 7 7 8 9 9 8 6 5 6 8 6 6 8 9 9 10 12 13 12 9 7 11 14 15 17 17 16 16 17 16 16 16 14 14 13 11 11 12 11 8 7 11 16 20 25 27 27 28 28 29 30 30 29 26 25 24 23 24 23 21 21 20 19 19 20 20 18 17 16 14 14 13 12 12 12 11 8 9 10 9 7 5 5 4
4 6 9 8 8 8 9 8 5 5 6 7 5 3 6 6 5 6 9 13 11 7 6 11 13 12 14 16 16 17 17 15 17 18 17 17 15 12 12 12 10 9 9 11 12 16 22 26 27 28 28 30 31 30 29 27 26 26 25 25 23 22 22 21 20 19 19 19 17 16 14 12 12 10 8 8 6 4 4 6 8 8 5 3 4 4
4 6 9 8 7 7 9 9 6 5 4 5 6 4 5 3 4 4 7 13 8 5 10 12 8 8 10 11 13 16 16 13 15 18 17 17 17 16 16 14 12 13 13 13 12 14 19 24 25 26 28 29 30 30 29 28 28 27 27 26 25 24 23 22 21 20 19 18 17 16 15 12 11 8 6 5 4 2 3 4 4 4 4 4 5 4
5 7 7 8 8 8 9 10 8 5 4 5 7 7 4 4 8 7 6 11 4 3 11 11 4 3 7 8 10 10 10 11 13 14 14 15 16 16 16 15 15 15 15 14 14 14 16 20 23 25 27 28 28 29 30 29 29 29 28 26 25 24 24 23 23 21 20 20 19 18 15 12 10 9 7 6 4 3 4 6 7 6 7 8 6 5
6 7 6 9 11 10 9 10 9 6 5 5 7 9 8 8 10 7 8 10 5 2 9 12 6 4 5 8 10 8 8 10 11 13 14 13 12 13 14 15 15 15 15 15 15 14 15 19 23 25 26 27 27 29 30 31 30 29 28 26 25 25 25 25 24 22 21 21 19 17 16 13 12 10 9 8 7 9 10 11 11 10 10 8 7 5
6 7 6 10 12 12 10 9 10 7 5 6 6 10 11 10 10 11 13 10 5 4 11 12 7 3 4 8 11 8 9 12 12 13 14 13 12 13 13 14 14 14 15 15 15 15 16 19 21 22 25 27 28 29 30 31 30 29 28 27 26 27 27 25 24 23 22 20 17 14 14 14 14 13 10 10 11 13 13 13 12 11 9 7 5 5
7 10 8 9 11 12 10 8 9 7 5 6 7 8 9 9 11 14 15 11 5 5 7 7 3 5 5 9 9 8 9 11 12 13 14 14 14 15 15 15 16 16 16 15 15 15 16 20 23 24 26 29 30 30 30 30 30 30 29 28 28 28 27 25 23 22 21 19 16 13 12 12 13 14 14 13 13 13 12 11 10 7 6 4 3 2
7 10 10 10 10 9 9 9 10 7 6 9 8 7 8 8 10 15 15 10 5 6 7 7 2 5 4 5 4 7 9 11 13 16 17 16 17 16 16 17 17 18 18 17 17 17 17 21 26 28 28 29 30 31 31 31 31 31 30 30 29 29 28 26 23 21 19 18 16 15 15 14 15 15 15 13 11 11 10 8 5 4 4 3 1 1
6 9 10 11 9 8 9 10 9 8 7 9 7 6 5 4 6 11 11 7 6 6 9 11 6 4 3 4 5 6 8 12 13 15 16 16 17 17 16 18 18 16 16 17 18 18 21 26 29 30 30 29 30 31 32 32 32 32 31 31 31 30 29 27 24 23 20 18 18 18 17 16 15 14 13 11 10 9 9 7 6 5 5 4 2 0
7 8 9 8 8 9 10 10 9 10 10 7 3 5 3 3 4 3 2 4 6 4 8 12 11 6 3 5 6 8 12 17 15 12 13 15 17 18 17 16 17 15 14 15 15 17 22 28 29 29 29 29 29 30 32 32 31 32 31 31 31 30 28 26 24 23 21 20 20 19 17 15 15 14 13 11 9 8 8 7 6 7 7 5 3 2
8 8 7 6 8 11 10 10 10 9 9 6 1 3 4 3 4 3 5 3 4 4 6 11 12 8 4 5 7 13 18 19 17 16 17 19 19 18 16 15 15 15 14 14 14 14 17 20 23 27 28 29 29 30 31 32 32 31 31 31 31 29 28 26 25 24 23 22 19 17 15 14 14 15 14 12 10 10 10 9 9 9 9 6 5 4
9 9 7 7 10 11 9 8 8 7 6 6 2 4 3 3 2 1 2 1 4 5 5 10 12 8 6 7 10 17 20 17 16 17 20 22 21 19 16 15 14 14 15 15 13 13 14 14 19 24 27 29 29 30 32 32 32 31 32 32 31 30 28 27 27 26 24 22 19 17 16 15 15 15 14 14 12 11 11 11 12 11 9 7 7 6
7 8 9 10 8 10 11 8 6 6 4 6 5 5 5 3 2 2 3 2 2 5 6 8 10 5 5 7 11 18 23 21 18 15 17 20 21 20 18 16 14 14 15 14 13 14 13 14 19 24 27 29 30 32 34 34 33 32 32 32 32 31 30 29 29 27 24 22 19 18 17 16 16 16 15 14 13 11 11 12 12 11 9 8 8 7
8 8 9 10 6 8 14 13 10 8 5 5 6 6 5 5 5 3 3 3 4 5 5 4 5 5 5 6 9 16 19 17 14 12 13 16 16 17 16 14 14 14 14 12 13 15 15 17 23 25 28 30 32 35 36 35 34 33 33 35 35 34 33 32 30 28 25 23 20 19 19 18 18 17 15 13 12 11 11 11 11 11 10 9 9 8
8 8 7 8 7 9 13 11 11 9 6 5 4 7 4 6 6 3 4 6 5 3 4 3 3 5 6 4 3 5 6 6 11 11 11 11 11 12 13 13 13 13 13 12 13 14 15 20 25 27 29 31 32 35 36 36 36 36 36 37 37 37 36 35 32 30 27 24 22 21 21 20 19 18 15 13 13 12 12 11 11 11 10 9 9 9
6 6 6 7 8 10 11 10 10 9 6 4 4 5 5 6 8 3 4 3 3 2 4 2 2 4 2 4 6 4 7 9 12 12 12 12 12 13 13 12 13 13 13 13 14 15 16 19 24 27 30 31 32 35 37 39 41 41 41 40 39 39 38 37 35 33 30 26 25 25 23 22 21 19 16 15 14 13 12 11 11 10 10 10 10 9
5 5 7 8 10 11 9 9 10 9 7 5 6 7 3 2 4 4 2 2 4 1 4 2 3 3 1 3 5 2 7 10 13 14 13 12 12 13 13 13 14 15 15 15 15 15 15 18 23 27 31 34 37 39 41 43 44 44 44 44 43 41 41 40 38 35 32 29 28 28 26 24 22 20 17 16 15 14 13 12 11 11 10 10 10 9
4 4 7 7 10 9 6 7 9 7 6 6 6 6 5 4 2 1 3 2 1 2 3 4 4 3 4 5 4 5 9 10 12 12 13 13 13 14 13 13 14 14 13 13 13 12 13 17 23 28 31 34 37 40 42 43 42 42 43 44 45 45 44 42 39 37 34 32 31 30 28 26 23 20 18 16 15 15 15 13 13 12 10 10 10 10
3 3 5 7 7 9 5 5 7 7 4 2 3 4 3 4 6 3 3 5 4 3 3 4 5 3 5 6 7 11 10 10 11 11 13 15 15 14 12 12 13 13 13 13 13 14 14 18 25 31 34 36 38 39 39 40 40 40 41 43 44 44 42 40 38 37 35 34 33 32 30 27 24 21 19 17 15 16 16 15 15 13 11 11 11 11
4 4 4 7 4 8 7 5 8 9 6 3 4 5 3 0 3 3 2 2 4 4 4 3 3 5 5 4 8 12 11 12 15 15 13 13 13 14 13 14 14 13 14 14 14 15 16 19 27 33 35 36 36 35 35 36 38 39 39 40 41 40 40 40 39 37 36 35 34 33 31 28 25 22 20 18 16 17 17 16 15 12 12 13 13 13
4 5 5 5 5 5 6 8 11 12 10 7 6 6 5 3 4 4 3 2 2 5 5 4 4 7 6 4 8 11 11 12 14 14 12 11 14 14 13 14 14 14 15 16 17 17 17 19 25 31 32 31 31 32 34 35 36 37 38 39 39 39 40 41 39 38 37 35 34 33 31 29 26 23 21 19 18 18 17 16 14 13 13 15 15 15
5 4 5 4 7 7 7 10 13 13 11 8 6 6 6 5 5 6 5 4 2 3 3 4 3 6 6 5 7 7 8 9 10 13 13 12 14 14 12 13 14 15 16 17 17 17 16 18 24 28 29 29 31 32 34 35 36 37 37 38 37 37 38 39 38 37 36 35 34 33 32 30 27 25 22 20 19 19 18 16 14 14 15 17 18 18
6 4 4 3 5 6 7 9 10 10 9 6 4 5 6 6 5 6 5 4 4 4 3 3 3 6 6 4 7 7 8 9 11 13 14 12 11 12 13 13 13 14 15 16 17 16 14 17 21 23 24 27 29 30 33 34 34 35 35 36 36 37 38 37 35 34 33 33 34 34 33 30 27 26 24 22 21 20 19 16 14 14 16 18 19 19
5 5 5 3 3 4 5 6 7 6 6 4 3 6 7 7 8 5 3 3 3 4 6 6 4 6 5 1 5 8 10 11 11 11 13 13 11 11 12 12 13 14 14 15 16 15 15 15 16 17 21 25 27 29 32 33 34 35 36 37 37 37 37 35 34 33 32 33 34 34 34 31 28 28 27 24 22 21 19 17 15 16 17 19 19 19
5 6 6 6 6 5 6 7 7 5 4 2 4 7 8 9 11 7 3 4 4 4 5 6 5 7 5 1 3 7 11 12 9 8 9 10 11 11 10 10 11 13 15 17 17 16 16 15 14 16 20 25 27 29 31 32 34 35 37 38 38 38 37 35 34 33 33 34 35 35 35 32 30 31 28 25 23 22 20 18 17 18 20 20 20 19
4 5 7 9 9 7 8 9 7 7 7 6 6 9 9 9 11 8 6 5 6 4 4 6 6 5 3 4 6 8 11 13 10 7 8 8 9 10 10 10 11 12 14 16 15 14 14 13 14 16 20 25 28 30 33 34 35 36 36 38 39 39 39 36 35 35 35 35 36 36 36 33 32 32 29 25 25 24 22 19 19 20 21 20 19 17
4 5 8 11 13 12 11 9 8 9 11 10 10 11 11 9 10 9 7 7 7 7 4 9 7 11 11 11 11 12 12 11 9 9 10 9 8 10 10 11 12 12 11 11 11 13 14 14 15 16 20 26 30 31 33 35 37 39 39 40 40 39 39 37 37 37 37 37 37 35 33 30 30 32 28 26 26 25 22 21 20 22 23 21 18 17
5 6 8 10 11 14 13 10 8 10 12 12 12 13 12 11 10 10 10 9 9 8 8 9 11 15 15 13 15 16 15 13 12 11 11 10 8 9 9 10 11 11 11 11 12 13 14 15 16 16 19 25 29 31 32 33 36 37 38 40 40 40 40 39 39 38 39 39 37 33 32 31 33 33 28 27 28 26 23 21 21 22 23 21 19 18
4 6 9 12 11 12 12 11 9 9 9 12 15 15 13 12 12 12 12 10 11 10 10 11 14 14 13 15 18 16 13 11 10 9 9 10 10 9 9 10 10 10 12 13 13 14 15 16 17 17 18 22 27 31 32 32 34 36 38 38 39 41 41 41 40 40 41 41 38 35 36 35 35 34 31 30 29 26 23 22 22 23 23 22 21 20
6 6 8 12 10 9 10 8 7 8 8 11 14 13 10 10 11 12 12 10 9 8 8 12 14 11 9 11 13 11 8 9 9 8 9 10 10 10 10 10 10 10 10 11 10 11 12 13 14 15 16 20 27 32 32 33 36 38 38 37 39 42 42 42 42 41 39 38 36 37 38 36 34 36 36 33 31 28 24 23 24 25 24 23 23 22
8 5 4 8 7 6 6 5 4 4 3 5 9 8 4 4 5 5 5 5 6 6 5 8 11 10 8 5 5 6 8 11 12 10 9 9 9 11 11 10 10 10 10 10 10 11 11 11 11 12 14 20 27 30 33 35 36 35 36 37 40 42 41 40 38 35 34 35 33 32 32 31 34 38 38 35 32 28 25 25 26 27 25 25 24 23
6 4 4 6 7 5 5 7 7 6 5 3 7 5 5 5 5 4 3 2 3 6 7 6 9 10 7 7 8 7 9 13 13 11 9 9 9 10 10 9 9 9 9 10 10 11 12 11 11 13 17 21 26 30 34 34 33 35 38 39 40 38 37 37 37 36 38 39 35 31 28 28 36 38 37 36 32 28 27 28 28 28 27 25 24 23
4 7 6 5 6 5 5 6 7 6 4 3 7 1 6 9 9 8 5 3 0 4 6 4 6 6 7 10 12 12 11 11 11 8 8 9 9 9 9 9 9 9 9 9 10 11 12 11 12 17 22 25 28 32 35 35 36 38 38 37 37 38 38 37 37 38 37 35 34 34 31 31 36 37 36 35 33 30 30 31 30 28 26 25 25 24
1 5 4 3 5 3 2 6 5 3 4 5 6 2 6 10 11 10 7 6 5 6 8 7 4 3 7 9 9 10 8 7 6 5 7 8 8 9 8 8 8 9 9 9 9 10 11 10 12 16 20 25 28 29 30 32 33 33 33 34 35 33 31 30 29 29 29 29 29 28 27 30 32 33 35 35 33 33 33 34 32 30 27 27 26 25
1 2 2 3 3 3 3 5 5 7 4 3 2 1 4 7 8 9 9 9 10 7 7 9 8 7 9 8 7 9 8 5 5 3 3 6 7 9 9 8 9 9 9 9 9 10 12 13 16 20 23 27 29 28 28 31 33 33 29 24 19 16 19 24 24 23 21 21 20 16 19 26 31 34 36 34 34 35 35 35 34 31 29 28 28 27
3 2 1 3 2 3 5 3 1 2 2 5 2 2 2 2 5 7 6 4 8 8 4 6 9 10 11 10 8 8 8 7 7 4 3 4 6 8 8 8 9 8 7 7 6 9 13 17 21 24 25 26 25 25 26 27 26 23 17 18 20 23 28 30 27 23 19 17 13 10 19 27 33 36 36 34 34 36 36 36 34 31 30 29 30 30
9 5 2 3 2 2 5 4 2 3 2 3 5 6 5 1 7 10 7 3 6 9 7 2 9 11 11 11 9 8 8 7 5 1 6 5 3 5 6 6 6 7 7 5 5 7 11 15 17 17 17 17 17 19 19 16 15 17 23 27 30 33 34 31 27 27 27 22 15 16 25 32 34 35 35 35 36 37 38 37 33 31 30 30 30 25
10 7 5 4 3 3 6 4 1 3 4 5 7 7 8 4 4 8 8 3 6 10 9 1 8 9 9 9 9 9 8 6 4 5 6 4 1 4 6 5 4 6 10 13 13 13 14 15 15 14 15 16 16 16 16 16 20 25 27 28 32 34 32 30 28 30 31 25 21 25 31 34 33 32 33 36 38 38 38 36 33 32 29 26 24 20
6 6 6 4 4 4 4 3 1 2 1 3 7 7 7 3 3 7 5 4 7 10 8 1 6 6 6 6 6 6 7 5 6 5 5 3 1 2 4 5 5 5 7 11 15 16 17 19 20 19 19 20 20 19 20 23 27 29 28 28 30 30 32 34 34 33 33 29 27 32 37 37 34 33 35 37 38 38 37 35 33 29 22 19 18 15
4 4 3 3 3 4 3 1 1 1 1 4 6 7 7 4 7 7 4 5 5 7 5 6 8 6 6 7 6 5 5 2 4 1 5 6 6 6 5 3 4 4 4 8 12 14 15 16 19 21 23 25 26 24 25 28 30 30 31 31 29 30 35 37 34 30 32 33 33 37 41 40 36 35 37 39 39 37 34 30 26 21 16 13 11 7
3 3 3 2 2 2 2 1 1 1 3 6 6 6 7 6 6 3 4 4 4 5 6 9 9 8 8 9 7 6 5 4 4 5 7 7 7 6 7 6 5 5 4 6 8 11 13 14 17 21 24 27 30 30 30 32 31 30 30 30 31 35 37 34 27 26 33 38 38 40 42 40 36 37 39 39 35 29 23 19 15 11 10 10 9 5
0 1 3 2 1 2 3 3 0 2 6 10 7 6 7 5 5 5 1 2 3 5 7 8 7 7 7 7 6 5 5 7 7 6 6 5 5 4 3 1 1 1 4 4 4 9 13 14 15 19 23 28 31 31 33 32 29 27 27 28 33 36 32 25 22 25 31 32 32 38 42 40 36 35 33 29 24 19 14 13 13 14 13 12 9 2
1 1 1 1 1 3 3 3 0 3 7 8 4 5 4 3 3 4 4 5 6 6 7 6 7 8 7 7 7 7 8 8 7 6 5 5 5 5 4 3 3 4 5 4 3 9 13 15 17 18 21 26 29 31 33 32 29 27 28 32 35 34 28 23 21 22 24 23 25 31 33 29 24 21 18 16 15 15 17 19 18 13 7 5 4 7
1 2 4 3 3 3 4 1 2 4 6 7 8 7 5 6 6 5 8 8 7 7 6 6 8 9 8 9 9 9 9 8 7 7 6 4 3 3 3 4 5 5 5 5 5 4 5 9 17 20 20 23 27 28 26 23 21 19 17 21 25 27 28 25 19 17 18 18 18 16 12 8 5 6 9 12 16 19 20 18 15 10 7 6 9 11
4 4 5 4 3 5 5 2 2 3 5 7 7 6 7 7 5 5 8 8 7 7 6 6 8 8 8 8 9 8 7 6 7 6 5 5 4 4 4 4 4 4 5 6 7 6 3 4 10 16 15 14 14 11 8 10 12 13 12 10 8 9 18 21 17 15 15 13 11 9 8 7 4 5 9 13 16 16 13 10 9 10 9 9 10 10
2 1 4 5 4 4 3 1 2 3 4 5 6 6 7 7 6 6 7 5 5 6 7 6 7 7 7 7 8 7 6 6 7 6 4 4 5 5 5 3 2 1 4 7 9 11 9 7 7 10 11 11 11 13 15 17 18 17 15 12 9 7 9 16 19 18 17 17 15 10 4 3 5 8 11 12 12 11 9 8 8 11 12 13 14 13
1 2 4 4 3 3 2 3 3 2 3 5 5 5 5 6 8 7 7 6 6 7 7 7 8 9 9 9 9 9 9 7 7 6 4 3 3 4 4 5 4 3 0 5 10 13 15 13 10 12 16 17 19 21 21 22 23 22 22 22 20 20 22 21 18 16 15 12 9 7 4 4 5 7 11 13 12 11 11 11 11 12 13 14 13 12
2 3 4 5 4 3 1 2 3 3 6 7 6 5 4 5 7 9 9 10 10 11 10 10 10 10 11 10 10 12 11 9 7 7 6 5 5 4 4 5 4 3 1 2 6 11 15 16 17 19 20 20 25 29 30 31 30 28 28 28 26 25 25 22 20 19 17 9 4 5 5 2 5 12 16 16 14 12 11 12 13 14 14 14 13 12
4 3 3 6 6 3 3 3 2 3 3 3 5 6 6 5 8 10 10 10 10 9 9 9 9 10 10 10 9 9 10 9 9 8 7 6 6 5 4 4 3 1 3 5 6 9 13 18 22 25 23 23 27 32 32 32 31 29 29 28 27 26 25 19 16 17 13 7 4 4 2 11 17 20 21 19 16 15 14 14 14 14 14 14 13 11
2 3 3 5 5 2 2 2 3 5 4 0 3 5 5 5 8 10 8 8 8 7 6 6 7 6 5 7 7 5 6 8 8 8 8 7 6 7 6 6 6 6 8 10 11 13 15 18 23 26 26 25 28 31 31 30 29 27 24 20 17 16 16 11 4 1 3 7 8 10 17 24 25 23 22 21 19 19 19 17 15 13 12 12 11 9
Wind_Direction
161 211 248 201 211 230 224 191 191 207 206 203 184 163 172 174 191 193 177 177 163 151 170 165 158 164 169 177 178 173 172 171 173 174 174 176 180 183 183 188 184 181 182 175 175 178 180 183 182 182 182 182 184 187 190 193 196 200 201 200 202 204 203 202 205 207 208 211 214 219 227 233 236 239 245 250 253 250 240 237 238 225 215 211 196 176
162 203 235 214 211 227 236 224 193 195 229 232 205 180 183 180 193 193 175 176 163 144 176 169 156 168 174 177 179 171 172 178 177 175 178 179 180 183 182 185 184 172 164 165 171 176 179 179 178 179 180 180 182 185 189 192 196 200 203 202 202 202 201 203 207 208 211 215 218 223 230 237 239 242 248 254 261 262 250 234 229 222 210 190 157 139
189 221 232 218 215 232 249 250 214 208 229 237 236 211 207 194 174 189 178 174 167 139 169 173 162 174 182 178 178 176 178 182 180 177 178 178 177 179 182 183 178 165 163 167 168 172 175 173 172 174 177 179 181 184 188 192 195 199 202 202 202 204 204 208 212 212 214 218 222 228 235 240 240 239 243 252 259 263 249 231 228 233 229 182 137 132
195 233 230 220 224 232 250 258 239 233 236 228 238 226 220 202 154 200 189 172 170 137 161 168 159 176 187 184 183 184 184 180 180 181 178 178 177 178 182 179 173 171 170 171 170 172 172 170 169 172 176 179 180 182 185 190 193 195 199 201 202 204 208 211 213 215 218 221 223 227 234 241 241 237 233 231 226 225 229 208 206 228 214 164 147 146
213 239 220 217 234 230 238 255 244 232 245 230 220 209 198 192 203 220 176 159 134 77 150 141 104 203 197 195 198 193 189 182 179 180 179 183 183 177 177 177 176 175 172 173 175 175 172 171 173 175 177 179 181 183 186 190 193 195 198 203 205 205 206 210 212 215 218 220 219 219 224 231 233 233 228 213 198 192 172 147 142 149 152 150 151 146
228 241 200 202 232 235 231 247 241 216 231 250 221 201 191 196 211 203 157 147 92 79 172 145 127 241 233 210 208 192 185 189 182 180 182 184 183 177 176 179 180 176 174 176 178 177 175 174 176 179 180 182 185 188 189 193 196 198 201 205 207 204 204 208 211 213 214 215 214 213 216 218 216 219 221 209 182 156 145 141 142 145 145 146 150 146
218 235 208 200 220 235 234 242 243 215 211 256 226 197 197 197 189 168 161 159 131 179 195 171 153 200 233 228 219 193 181 192 190 187 186 182 182 181 181 182 180 177 177 179 180 179 177 176 178 182 184 185 190 192 192 194 197 200 203 204 204 203 204 206 207 210 213 213 212 215 219 217 213 209 200 186 170 156 149 146 148 149 147 149 149 144
192 215 224 211 212 229 233 238 239 203 187 248 237 200 194 183 172 166 167 175 167 148 179 190 125 116 196 224 210 186 182 194 197 193 191 188 187 186 184 184 182 180 178 177 181 181 179 180 180 184 187 189 192 193 192 194 197 200 201 201 202 204 204 203 203 209 213 212 211 212 209 203 199 192 177 169 166 159 154 152 152 154 156 164 153 109
193 201 216 215 214 227 230 232 227 183 187 242 238 208 185 174 179 174 173 181 158 119 166 212 127 109 220 248 171 174 193 201 202 198 194 192 191 189 186 186 186 183 180 178 180 182 183 183 183 185 187 190 192 192 192 195 197 199 199 199 201 204 204 203 204 208 210 212 210 200 188 177 175 176 171 169 171 170 174 181 190 198 200 207 234 23
209 197 203 211 218 227 232 237 222 182 208 242 228 205 176 135 168 175 172 164 134 137 184 206 190 147 250 255 166 174 206 210 206 199 196 193 192 193 189 188 188 185 183 182 180 181 183 184 184 184 185 188 191 191 192 195 197 197 197 198 200 202 204 206 207 208 209 208 199 188 182 176 173 176 177 178 183 191 202 211 216 216 212 210 212 112
225 207 200 207 218 226 230 237 222 197 213 236 215 206 222 39 77 131 103 103 132 189 211 203 198 182 231 246 190 185 206 207 199 192 193 194 194 196 193 190 188 185 184 185 184 184 183 183 181 180 182 186 189 189 191 193 195 196 197 198 200 203 205 207 208 207 203 195 189 189 190 190 187 186 186 189 194 201 204 205 209 205 194 189 203 199
240 226 211 204 210 218 226 235 233 214 206 214 186 170 216 318 23 45 7 52 152 232 237 206 199 191 221 249 211 208 216 207 192 185 186 191 195 196 194 191 188 185 184 185 186 185 181 178 177 178 181 184 185 186 188 191 194 195 196 198 200 203 204 205 204 199 193 190 193 199 201 200 199 199 202 206 207 209 210 209 206 195 187 195 212 212
237 233 223 216 211 207 211 230 241 239 208 202 187 106 148 269 351 110 255 216 190 242 239 191 183 193 224 231 214 214 221 215 197 189 184 186 191 190 191 192 187 184 185 186 185 183 179 176 176 179 181 182 182 184 186 190 192 193 195 197 199 201 202 201 199 195 194 196 200 205 206 205 205 206 208 208 206 207 208 204 195 190 191 200 204 206
233 244 226 216 217 201 202 213 226 241 220 193 185 137 146 159 120 194 233 225 211 258 256 185 171 196 241 243 222 209 214 214 201 188 181 184 187 185 186 189 186 186 188 186 183 182 181 180 179 180 181 181 182 184 186 188 191 191 193 195 197 199 199 197 195 196 199 201 205 207 206 204 204 203 200 201 202 202 202 202 199 199 201 199 198 202
212 237 223 209 210 194 202 210 205 204 206 201 172 143 157 158 152 196 205 191 205 234 254 201 170 195 207 235 225 208 215 212 189 176 175 182 186 182 182 184 184 187 188 186 184 184 183 182 181 181 183 183 183 184 185 187 189 190 191 193 195 195 195 195 196 199 201 202 205 206 203 204 203 201 202 206 211 212 210 211 212 214 216 214 213 215
207 235 231 212 211 197 198 203 192 186 205 224 145 120 168 175 157 182 193 186 182 199 240 210 198 215 207 268 287 188 193 172 161 165 166 172 178 174 179 183 184 187 187 186 187 187 186 183 182 183 184 185 185 184 185 187 188 189 190 192 194 195 195 197 199 201 202 203 204 203 202 205 203 204 210 212 212 213 213 215 219 222 222 221 223 227
195 247 252 210 216 216 197 178 172 177 192 215 177 174 205 172 146 162 234 235 104 152 252 241 269 299 280 319 349 86 129 142 156 167 169 170 168 170 180 184 183 186 186 187 188 188 187 184 184 186 186 186 186 185 186 188 189 189 190 191 193 195 196 197 200 201 201 202 202 202 202 205 205 207 212 210 209 211 212 219 225 224 224 226 227 227
169 248 264 206 210 230 208 177 181 183 160 156 200 208 200 137 123 120 197 315 54 164 274 297 254 276 230 267 321 83 146 163 169 172 173 172 167 172 183 183 184 186 185 187 189 188 186 184 185 187 189 189 189 188 189 190 190 190 190 191 191 193 195 197 200 200 200 199 200 202 202 205 208 210 211 212 214 213 214 221 222 221 228 227 222 220
179 241 276 223 207 222 212 187 200 207 165 150 182 186 154 159 187 104 153 169 101 204 274 300 269 242 199 221 233 184 182 181 174 170 172 176 177 180 182 181 182 184 182 184 186 187 188 188 188 189 191 193 192 192 192 191 190 190 190 191 192 194 197 198 198 198 198 198 200 202 203 205 208 210 210 212 213 212 212 214 212 218 228 224 223 226
205 189 274 262 213 191 192 195 201 220 226 160 140 162 171 167 175 183 166 158 160 193 233 280 299 274 225 217 199 191 188 175 168 174 183 185 185 185 179 174 179 180 180 183 184 190 192 190 191 191 192 194 195 194 193 190 190 190 191 192 193 194 196 197 197 197 196 197 200 203 204 205 208 210 210 208 208 209 210 211 210 221 234 234 236 236
197 174 240 282 243 182 192 209 194 197 207 186 152 180 221 86 147 174 187 151 143 152 184 220 270 268 248 215 190 188 182 176 178 182 188 187 186 189 183 177 180 179 179 183 186 191 193 193 195 195 194 194 194 193 192 190 190 190 191 192 193 193 193 195 197 197 196 196 199 202 203 206 208 208 208 208 210 211 210 210 213 226 241 241 241 241
185 175 202 268 268 211 208 212 198 192 189 173 165 184 188 148 127 161 229 284 128 146 168 176 220 262 260 200 185 189 184 183 182 178 182 187 188 193 189 179 177 176 179 186 190 191 192 195 196 195 194 192 191 191 191 190 190 190 192 193 193 192 193 195 196 196 196 195 197 202 205 206 207 206 206 209 212 212 210 210 218 231 237 237 240 245
168 153 173 223 250 238 222 214 202 187 176 167 174 186 177 151 126 150 204 246 204 174 146 132 193 266 265 200 176 179 175 174 179 179 183 191 193 193 188 176 177 183 186 188 192 193 193 195 194 191 190 190 189 190 190 189 190 191 192 192 191 193 194 196 196 194 194 193 195 202 206 206 205 204 205 207 211 213 213 216 224 231 234 237 242 246
170 166 179 216 265 264 247 233 213 183 161 161 181 169 162 169 156 151 171 180 187 192 145 134 223 266 274 218 168 162 165 174 187 188 186 190 196 195 184 174 179 189 191 190 193 196 195 193 191 188 188 189 188 189 189 189 191 191 191 191 191 193 195 196 195 193 191 192 196 202 204 204 205 205 204 206 211 216 219 220 221 226 233 240 244 249
192 183 164 174 233 264 259 242 229 207 179 167 171 168 171 171 159 149 126 138 215 222 157 149 214 254 277 229 163 171 171 180 194 188 183 186 191 196 185 177 182 185 189 195 197 197 194 190 189 188 188 187 186 187 188 188 189 189 190 192 192 193 194 194 193 191 190 192 197 202 202 200 204 207 205 206 212 219 222 220 219 226 235 241 246 253
193 186 165 172 189 199 208 213 214 209 205 194 164 177 187 175 169 173 136 142 224 234 147 151 209 253 289 49 185 200 175 179 195 185 180 181 179 186 180 173 181 181 186 196 197 196 194 190 190 187 186 185 185 186 187 187 189 189 191 192 192 192 193 192 191 189 189 192 196 201 200 198 203 206 205 207 213 219 221 218 221 229 237 242 247 251
156 186 177 172 185 195 197 209 205 176 184 207 193 190 199 192 183 169 126 155 198 173 170 208 192 187 218 184 199 213 185 179 186 174 173 175 172 178 173 168 177 183 190 195 193 193 192 189 189 185 183 186 186 186 186 187 188 189 191 192 193 192 192 191 189 188 188 191 196 200 198 196 201 204 204 208 214 218 221 220 223 230 237 241 241 240
147 194 188 176 196 211 205 213 211 181 186 201 202 202 202 194 183 168 164 186 163 136 207 245 186 163 191 198 193 202 196 184 176 170 173 173 174 179 170 164 173 183 191 192 188 187 186 188 190 187 186 186 186 187 188 188 189 190 191 192 192 192 191 190 188 187 188 191 197 198 192 191 203 208 206 209 214 217 221 222 226 233 237 236 233 235
150 195 192 179 206 221 214 212 201 186 194 200 204 209 202 189 181 185 202 196 155 158 213 223 189 181 189 194 194 195 191 181 176 177 173 165 170 176 162 155 169 182 185 185 187 187 187 189 189 188 190 188 187 187 187 189 191 191 193 193 192 192 191 189 187 187 188 192 196 194 186 190 205 210 208 211 213 215 218 221 227 232 232 231 234 241
160 201 193 185 209 229 223 214 193 181 198 206 209 211 204 195 186 188 206 200 177 197 210 183 185 198 193 190 195 194 186 173 166 167 162 157 162 165 155 154 167 182 186 187 191 189 189 192 189 189 191 188 188 189 188 190 192 193 195 194 191 192 192 189 187 187 190 193 193 191 189 195 204 207 207 210 212 213 214 217 224 228 228 231 239 243
204 219 194 181 197 225 222 215 199 184 193 209 213 212 209 211 205 200 209 201 184 211 210 167 178 210 220 201 190 176 159 147 147 157 159 161 162 159 162 168 168 175 184 189 196 198 199 199 196 194 191 189 191 191 189 191 193 195 196 194 193 195 193 190 189 189 190 191 191 191 190 194 204 207 206 207 211 213 212 215 222 226 229 235 240 241
210 215 180 163 174 211 200 158 140 151 163 207 209 194 184 205 208 205 205 180 170 188 170 152 178 213 227 199 143 136 152 152 155 160 159 165 166 159 166 176 168 168 180 186 194 202 205 204 202 201 199 197 195 193 193 195 195 196 196 195 197 197 194 191 190 187 187 188 191 192 188 194 208 208 205 207 210 210 212 217 222 225 229 234 237 240
194 176 162 158 162 210 200 131 98 68 46 287 233 185 126 117 107 79 56 70 164 159 138 160 206 218 202 155 135 155 172 162 161 165 163 169 168 154 159 167 162 167 181 186 190 196 200 202 202 202 203 200 197 197 199 198 196 199 200 199 199 197 194 191 187 184 185 186 187 186 188 205 215 210 205 208 210 210 214 217 220 224 228 233 237 240
193 168 169 156 150 207 211 132 93 67 85 240 263 285 100 110 102 82 48 352 237 134 128 166 208 200 171 162 165 173 175 166 164 167 162 158 150 144 153 159 160 167 180 187 190 194 197 199 199 200 202 202 201 201 201 200 201 203 202 200 199 198 195 191 186 184 181 178 177 181 192 212 216 210 209 212 210 211 215 217 219 223 227 233 237 239
254 170 160 124 130 178 164 109 112 185 197 231 275 321 101 111 101 85 54 7 21 73 87 82 79 126 144 152 155 152 150 146 138 137 147 147 139 141 152 163 169 172 179 185 188 194 198 196 192 193 198 202 205 205 204 204 204 204 203 202 201 199 192 183 176 170 163 161 167 179 199 214 213 210 213 214 211 212 215 218 220 223 227 232 235 237
205 172 139 90 118 149 110 107 168 213 252 303 282 206 89 89 84 72 50 13 5 31 82 91 82 84 99 107 116 122 123 110 82 80 171 170 150 145 154 173 182 181 182 184 185 191 196 193 190 191 195 199 202 205 207 208 207 206 204 195 180 164 154 149 142 134 135 147 159 180 214 217 211 213 217 215 212 213 216 219 220 223 227 229 232 238
81 114 98 63 84 140 122 100 184 200 336 352 331 271 320 101 129 115 89 16 354 360 24 92 98 97 99 101 109 117 111 91 68 32 283 227 186 170 167 177 182 178 182 192 189 186 189 193 194 196 197 197 198 202 207 210 210 199 171 138 131 136 140 140 136 135 143 153 161 210 236 222 209 213 219 216 212 213 216 219 222 225 228 229 233 237
58 46 55 85 63 85 100 75 45 127 164 275 277 289 313 243 151 124 96 349 330 348 346 87 121 119 119 120 122 115 100 92 102 238 286 287 221 175 159 169 173 153 140 131 117 133 164 182 189 192 190 186 189 198 203 200 184 154 136 139 148 151 150 150 154 160 166 169 181 218 230 221 213 216 220 215 212 214 216 219 223 229 231 231 233 235
56 40 31 67 64 54 88 98 130 156 179 245 266 295 319 290 172 105 72 331 308 336 331 234 130 121 122 130 136 125 109 114 167 241 277 288 199 148 136 132 128 124 126 128 126 128 137 146 151 157 164 166 170 182 183 168 150 140 139 148 154 153 156 165 173 174 171 173 186 203 213 218 222 223 220 215 213 214 217 222 228 233 232 229 230 233
48 45 29 40 45 45 79 108 190 168 162 270 271 291 312 295 127 89 75 271 297 327 327 31 101 95 98 107 113 106 106 148 194 246 294 307 66 101 121 128 127 129 131 128 128 130 129 129 132 139 150 157 161 168 169 160 150 144 145 153 158 163 171 181 188 186 178 179 189 196 205 219 229 229 223 218 217 218 222 226 230 230 227 224 229 235
30 46 59 87 62 35 63 104 264 241 318 289 282 301 327 21 69 83 154 228 293 330 356 55 61 48 58 72 76 71 67 138 190 262 352 25 46 23 8 57 101 110 125 129 133 137 137 137 142 149 158 163 164 169 171 165 159 157 159 165 173 181 186 192 196 189 182 188 194 195 202 218 230 228 223 221 222 223 224 226 230 229 222 217 219 218
16 22 31 88 97 69 86 85 291 271 307 301 302 338 10 52 85 118 201 230 300 346 32 55 57 50 53 63 75 84 71 54 59 40 25 41 55 26 5 15 26 30 80 122 139 145 139 138 146 154 162 168 169 174 177 173 170 170 171 176 187 193 195 199 200 193 192 197 196 193 202 217 225 222 221 222 223 222 220 223 223 209 185 173 164 142
88 50 12 21 106 95 68 46 15 237 296 306 317 3 23 66 152 193 196 30 7 18 37 48 52 51 55 62 67 76 72 53 45 41 32 34 34 24 30 82 80 56 86 103 159 166 151 145 151 158 164 170 174 179 181 178 174 172 175 186 196 199 199 202 207 205 202 201 199 200 206 214 218 217 218 221 220 211 197 183 166 151 145 146 147 119
7 103 125 51 33 70 73 47 232 245 295 325 33 80 45 51 128 154 108 71 45 37 36 35 33 29 40 56 51 44 45 37 25 25 31 33 26 20 20 24 38 72 79 79 162 177 165 156 158 164 169 173 177 182 185 183 179 177 184 197 202 200 199 200 203 199 191 191 203 211 211 210 212 216 220 223 215 193 171 159 155 157 163 182 231 284
257 175 138 99 49 89 117 132 262 274 315 6 61 92 86 67 67 80 85 77 62 51 43 40 35 22 22 40 43 38 36 26 14 14 14 14 34 51 44 28 34 56 68 80 120 168 202 180 165 164 171 178 182 184 186 186 181 177 191 210 211 204 200 198 191 178 174 184 201 204 192 178 189 214 218 209 194 180 170 167 175 199 237 255 262 264
220 175 129 105 93 105 108 86 353 1 7 21 45 69 81 82 79 75 73 70 67 63 58 55 47 25 15 33 43 36 25 22 30 30 7 353 3 11 17 28 45 75 94 108 131 154 224 221 169 158 160 169 173 162 124 92 82 64 31 349 307 241 210 197 177 153 147 149 142 121 90 69 83 137 164 171 173 176 179 184 195 211 225 224 215 205
257 102 88 86 95 108 111 323 344 29 27 21 33 44 55 65 73 80 83 89 91 81 72 63 50 28 17 33 40 27 7 12 27 28 12 6 6 350 336 329 315 170 140 146 156 159 161 166 155 133 116 105 102 95 87 87 89 79 63 51 45 61 119 136 129 117 113 113 112 107 81 63 109 137 152 160 168 176 178 176 181 189 195 191 181 176
234 97 97 93 85 104 152 257 288 17 44 37 47 49 44 50 56 61 73 81 75 68 63 56 45 28 16 21 23 11 0 4 6 354 338 328 314 301 289 283 294 316 174 160 161 157 153 150 136 111 98 100 111 114 110 106 102 93 82 79 78 73 72 76 76 70 69 88 119 135 113 88 117 163 178 176 171 167 163 165 175 180 182 181 180 184
139 111 120 115 85 64 78 273 299 16 33 23 24 33 42 61 63 55 52 53 49 43 39 39 39 29 13 9 9 359 351 352 344 322 302 286 273 270 278 284 299 329 346 148 153 156 151 140 123 109 104 108 118 119 111 101 96 92 84 76 71 66 54 37 24 24 29 39 79 81 59 75 201 200 191 179 170 165 163 168 177 180 179 181 186 194
98 110 132 127 127 150 186 185 162 112 76 358 345 10 26 47 65 60 51 47 48 46 40 37 39 31 10 358 360 352 336 330 322 302 286 277 264 251 248 252 248 209 159 150 147 149 142 130 121 115 111 109 111 111 108 102 100 102 99 86 73 67 62 44 21 16 17 15 27 25 262 216 204 194 185 177 171 167 163 163 170 176 177 180 185 193
69 115 107 105 119 176 226 187 137 118 119 157 351 29 34 40 63 67 58 50 51 51 49 53 58 52 5 328 334 339 315 312 314 294 273 263 259 250 235 217 201 183 174 167 153 139 128 122 122 121 116 113 112 111 109 107 105 104 102 93 80 75 74 67 48 62 181 199 217 230 219 205 194 185 179 175 173 171 166 161 162 168 175 180 184 189
Height
730 748 756 757 756 750 748 750 751 752 752 753 756 760 765 770 772 764 759 754 750 769 780 776 781 785 784 784 780 779 781 784 789 791 792 794 795 795 795 795 795 795 794 793 795 796 797 799 801 803 805 807 809 811 813 814 815 817 818 820 821 822 824 825 826 826 827 828 829 830 830 831 831 833 833 833 834 834 834 834 835 835 836 837 838 839
733 754 757 748 746 741 739 743 746 751 752 754 758 762 764 766 766 757 755 753 748 766 781 775 780 784 779 779 777 776 781 784 784 787 789 790 791 792 793 793 793 792 792 792 794 795 796 798 800 802 804 805 807 808 811 812 813 815 817 819 820 821 823 824 824 825 825 826 827 828 828 829 830 831 832 832 833 833 833 834 835 835 836 837 837 838
749 755 748 739 738 737 737 739 745 751 752 756 758 763 768 763 761 758 753 751 750 764 781 778 781 785 777 774 774 773 776 777 775 777 781 783 787 790 790 790 791 792 792 792 793 794 795 797 798 800 802 804 805 806 808 810 812 814 815 817 819 820 821 822 823 823 824 825 825 826 827 828 829 830 831 831 832 832 833 834 834 835 836 836 837 837
760 752 737 733 734 738 742 740 744 753 754 757 758 763 769 761 764 769 760 754 752 759 774 779 783 786 780 777 775 771 770 770 771 771 773 776 779 782 782 784 787 789 791 791 792 792 794 795 796 798 800 802 804 805 807 808 810 812 813 815 816 818 819 820 821 822 823 823 824 825 826 827 828 829 830 830 831 832 832 833 834 834 835 836 836 837
755 740 728 731 734 738 745 744 746 756 761 758 754 758 762 757 759 763 759 756 757 763 768 778 796 797 787 788 784 774 771 772 772 773 775 775 774 775 777 780 781 783 785 788 790 790 790 793 794 795 798 800 802 803 805 807 808 810 811 813 815 816 817 818 819 821 821 822 823 824 825 827 827 828 829 830 831 831 832 833 833 834 835 836 836 836
746 731 725 733 736 736 744 748 746 753 762 760 752 748 748 749 751 755 757 761 777 790 775 775 811 815 792 791 788 778 778 777 774 775 777 777 776 776 778 779 778 778 780 783 785 786 787 789 791 794 796 798 800 801 803 805 807 809 810 812 814 815 815 817 818 819 820 820 821 823 824 825 826 827 828 829 830 830 831 832 833 834 835 835 836 836
737 727 725 733 736 737 744 747 741 743 760 764 747 735 737 740 745 753 757 766 786 795 772 764 798 815 801 792 785 780 782 780 776 776 776 777 776 776 776 776 776 776 778 780 781 782 784 786 789 791 793 795 797 799 801 804 806 808 809 811 812 813 814 815 816 817 818 819 821 822 823 824 825 826 827 828 829 830 830 831 832 833 834 834 835 834
728 729 730 732 735 739 745 747 737 735 755 758 734 726 734 737 742 749 753 764 771 773 772 768 779 802 807 792 780 780 785 784 780 778 776 775 774 773 772 771 771 772 773 776 779 780 781 782 785 788 790 792 794 797 799 802 804 806 807 809 811 812 813 814 815 816 817 819 820 821 822 823 824 825 826 827 828 829 829 830 830 831 832 832 832 832
721 730 733 731 738 742 740 737 728 730 746 741 722 723 731 732 738 740 747 759 761 771 791 783 774 798 809 790 778 781 786 787 783 778 774 772 771 769 769 768 767 767 767 769 773 775 777 778 781 784 788 790 793 795 798 800 802 804 806 808 809 810 811 812 814 815 816 818 819 821 821 822 823 824 824 825 826 827 827 828 828 829 830 830 830 830
719 720 721 725 736 737 730 723 719 728 736 724 716 722 726 730 734 737 748 757 762 781 798 786 774 791 803 792 785 786 787 784 777 771 768 767 767 765 764 764 763 764 765 765 767 768 771 774 778 782 786 789 792 794 796 799 801 803 804 806 807 808 809 811 812 814 815 817 818 819 820 820 822 822 823 824 824 825 825 826 827 827 828 829 829 829
715 708 709 717 723 721 718 716 714 720 722 716 720 727 730 736 738 744 753 756 772 791 789 777 771 780 795 792 784 780 771 763 763 766 766 764 764 762 760 760 761 763 764 764 765 765 768 772 776 781 784 787 790 793 795 798 799 801 803 804 806 807 808 809 811 813 814 815 817 818 819 819 820 821 821 822 823 823 824 825 825 827 827 827 828 828
719 716 714 710 707 707 713 716 712 710 712 717 727 733 742 751 751 758 764 764 784 795 777 767 766 775 792 786 771 763 748 741 748 756 759 759 759 758 757 757 757 760 762 763 765 766 768 772 775 779 782 785 788 791 793 795 798 800 801 803 804 805 807 808 809 812 813 814 815 816 817 818 818 819 820 820 821 822 823 824 825 825 826 826 827 827
726 722 715 707 701 701 715 725 720 714 715 722 732 741 757 771 772 780 785 780 787 784 764 758 765 778 784 765 751 750 741 736 738 739 744 749 751 753 753 753 754 756 759 760 763 765 767 770 772 775 779 782 785 788 790 793 795 797 798 800 801 803 804 806 808 810 811 812 813 814 815 816 817 818 818 819 820 821 822 823 824 824 825 825 825 826
737 726 713 713 708 698 708 728 734 729 725 729 737 746 761 777 788 797 796 790 788 776 757 753 764 777 774 750 737 737 730 726 726 728 735 739 742 747 747 748 751 753 755 757 760 762 765 767 769 772 775 778 781 784 786 789 791 794 795 797 798 800 802 803 805 807 808 810 810 811 812 813 815 816 817 818 819 820 821 822 823 823 823 824 824 824
749 743 720 715 712 700 702 712 718 721 724 726 726 735 749 759 775 787 787 786 783 771 759 759 766 770 761 739 723 720 717 715 720 726 731 735 738 741 743 746 750 752 754 756 758 759 760 763 766 769 772 774 776 778 781 784 787 790 791 793 795 796 798 800 802 804 805 807 808 809 810 811 812 814 815 816 817 818 820 820 821 822 822 822 823 823
743 741 712 701 699 695 701 699 696 711 726 722 717 731 743 740 746 762 768 765 763 765 763 761 759 748 737 725 715 715 717 717 723 727 731 738 740 741 746 747 749 752 753 755 757 757 758 759 762 765 768 770 772 774 777 779 782 784 786 789 791 792 794 796 798 800 802 804 806 807 808 809 810 811 813 814 815 816 817 819 819 820 820 821 821 822
737 733 704 696 697 690 693 693 689 706 723 722 723 733 730 719 725 749 763 756 755 771 767 754 751 741 732 729 722 720 723 723 727 729 732 737 739 743 747 746 747 749 750 752 753 753 755 757 760 762 764 766 768 770 772 773 775 778 780 783 786 788 791 793 794 796 798 801 803 804 805 806 808 809 810 811 813 814 815 817 818 818 819 819 820 820
725 728 703 695 704 691 680 685 686 687 699 717 728 723 716 719 722 737 761 766 769 781 769 752 754 752 749 747 735 730 732 730 728 728 731 736 739 743 743 742 743 744 745 748 749 750 752 753 756 758 760 761 762 764 765 767 769 772 774 777 781 783 785 787 790 792 795 797 800 801 802 804 805 806 808 810 811 812 813 815 816 817 818 818 819 819
712 729 712 691 699 692 677 689 700 690 685 699 709 703 712 736 743 743 758 771 780 788 775 758 755 754 752 747 737 736 737 733 730 730 732 736 738 739 740 741 741 742 745 748 749 751 751 751 753 755 757 758 759 760 761 763 766 769 771 773 775 778 780 783 786 788 791 793 796 799 800 801 803 804 806 808 809 811 812 813 815 816 817 818 818 819
705 728 725 695 687 690 687 699 714 709 695 692 697 701 707 723 735 741 748 755 767 782 781 769 761 754 743 732 729 732 731 731 733 732 731 732 732 733 736 739 740 741 743 745 747 748 747 747 749 750 752 753 755 757 759 762 765 766 769 771 773 776 779 782 785 786 788 791 793 796 798 800 801 803 804 806 808 809 810 811 813 814 816 817 818 818
703 721 729 705 688 695 702 702 705 710 707 706 712 717 716 715 721 731 739 743 749 766 777 776 770 753 729 718 722 724 722 723 725 725 726 727 727 729 730 732 735 736 739 740 741 743 743 744 745 745 747 749 752 755 758 760 763 764 767 769 771 774 776 778 781 783 786 788 791 795 797 799 800 802 803 805 806 808 808 809 810 812 814 815 816 817
703 713 723 717 705 706 703 688 683 691 697 704 711 715 717 719 724 737 750 745 737 746 758 765 768 748 719 711 715 715 715 716 716 718 722 723 723 724 725 726 730 732 734 735 734 736 737 738 739 742 744 748 751 753 755 758 760 762 764 766 769 771 773 774 777 780 783 786 790 794 796 797 799 800 802 803 805 806 806 807 808 809 812 813 814 816
690 702 716 719 709 702 691 675 673 678 682 690 698 701 707 713 721 738 752 745 736 740 744 751 760 743 714 707 710 711 713 712 713 715 718 719 718 718 721 723 726 727 727 728 728 730 731 731 734 738 741 745 747 749 752 754 756 758 760 763 766 768 770 772 775 778 782 785 789 792 794 795 797 798 799 801 803 805 805 804 805 807 809 810 812 813
684 699 714 718 706 694 684 674 670 671 678 691 696 695 702 708 709 717 727 731 735 740 741 751 762 742 713 705 707 708 709 709 711 710 712 715 714 714 717 720 723 724 724 724 724 725 726 728 732 736 738 741 744 746 749 751 754 756 758 761 763 765 767 770 773 777 780 784 787 790 792 793 795 797 797 799 801 803 804 803 803 805 806 808 809 811
688 700 709 722 724 716 709 702 693 686 686 693 696 694 696 699 700 706 715 724 734 737 735 746 758 740 714 707 709 709 708 709 710 707 708 711 711 712 714 716 719 721 722 723 722 722 725 728 730 733 735 738 741 743 746 748 751 753 755 757 759 762 765 768 771 775 778 782 785 787 789 791 794 795 795 796 799 802 802 802 802 803 804 805 807 808
684 694 700 719 734 735 732 723 710 701 695 692 691 691 692 695 698 705 716 730 739 738 734 737 743 732 716 713 715 713 712 712 712 710 708 707 708 710 712 714 717 718 720 721 720 721 723 725 727 729 731 735 737 740 742 745 747 749 751 753 755 758 762 765 769 772 775 779 782 784 786 787 790 792 792 793 796 799 800 800 800 801 802 803 804 806
677 686 689 702 714 716 715 705 691 689 695 697 693 690 691 693 694 701 717 730 732 733 735 730 726 728 724 719 719 717 713 711 711 711 709 706 707 708 709 712 714 715 716 716 716 719 721 724 726 727 729 732 734 736 739 741 743 746 748 750 752 755 758 761 765 768 772 776 778 780 782 785 788 789 789 790 794 796 797 797 798 799 800 801 802 803
676 686 686 690 694 693 692 687 681 682 689 693 692 690 690 690 693 702 714 718 718 729 737 727 720 726 724 716 715 714 711 709 709 709 707 705 706 706 707 711 713 714 715 715 717 719 720 723 724 724 726 728 730 733 735 737 739 741 743 745 748 751 754 757 761 764 768 772 774 777 780 787 791 790 787 788 791 793 794 794 795 797 798 799 800 801
672 684 682 684 688 685 683 681 679 681 684 685 687 689 688 689 693 701 706 705 707 718 721 716 717 720 713 708 709 704 701 702 704 703 701 701 703 704 707 711 713 714 715 716 717 717 718 719 720 721 722 723 726 729 731 734 736 738 740 741 744 747 749 752 756 760 764 767 769 773 777 782 786 786 786 787 788 790 791 791 793 795 796 797 798 799
664 678 676 677 685 684 681 681 678 679 683 683 682 682 683 686 689 693 696 697 699 703 701 703 715 714 701 697 697 693 693 696 698 700 700 700 703 704 707 711 713 713 714 714 714 714 714 715 715 716 718 720 724 726 727 731 733 735 737 738 740 742 744 748 752 754 758 760 763 767 771 775 779 781 782 784 786 787 787 788 791 793 794 795 796 797
658 674 671 671 685 687 680 679 678 679 683 685 684 681 679 682 685 687 689 692 697 702 699 702 715 713 696 687 687 689 692 695 698 701 700 700 701 702 705 708 710 712 713 712 713 713 713 713 714 714 716 718 720 721 724 726 728 730 733 735 737 738 739 744 747 750 754 757 761 764 767 772 778 779 779 780 782 783 784 786 788 790 792 792 794 795
657 669 668 671 691 693 678 678 680 675 678 685 685 682 681 684 687 687 687 689 694 700 704 711 717 710 693 686 690 694 695 696 699 700 700 701 700 698 701 704 707 709 710 710 711 712 713 714 715 715 715 715 717 719 721 722 724 728 730 732 733 734 737 741 745 750 754 757 763 769 772 775 777 776 775 777 778 780 782 784 786 788 789 790 791 792
657 664 667 675 692 692 679 676 677 677 691 702 690 678 681 686 688 688 687 686 686 690 701 710 705 693 687 688 693 699 699 696 695 695 695 699 698 697 698 701 703 705 705 707 709 710 711 711 711 712 713 714 715 717 718 720 723 725 726 727 730 732 735 739 742 746 749 751 759 769 775 777 776 774 774 774 775 777 779 781 783 785 786 787 788 790
657 659 664 671 683 690 681 671 676 695 715 713 687 669 674 681 686 692 693 690 686 684 688 692 686 681 684 688 690 694 695 692 690 690 690 692 694 696 698 700 702 703 703 705 705 706 707 707 708 709 710 712 713 714 717 719 720 721 723 726 728 729 732 735 739 742 745 750 757 764 770 772 773 773 773 773 773 775 776 778 780 781 783 784 786 786
662 661 662 666 676 687 682 676 696 719 714 694 678 670 670 674 678 686 691 690 686 682 682 686 686 683 683 685 685 689 691 689 689 689 688 687 688 692 697 699 699 701 703 703 703 702 702 703 704 707 708 711 713 715 717 719 720 722 724 726 728 730 733 736 740 744 748 752 756 761 766 769 771 773 772 771 772 773 773 775 776 778 780 781 782 782
663 663 664 668 677 686 687 691 709 715 695 680 680 677 674 676 679 686 696 696 690 688 686 687 687 684 684 687 687 688 690 690 691 691 688 687 687 688 693 696 696 698 698 698 698 698 698 699 701 703 705 707 711 714 717 719 719 721 724 728 732 736 739 742 745 750 753 755 756 760 764 767 769 770 770 770 770 770 770 771 772 774 775 777 778 778
658 664 666 673 682 689 695 700 703 702 698 694 691 684 679 678 678 685 701 705 695 692 693 690 687 685 685 689 690 689 689 692 698 698 691 688 687 686 688 691 691 692 692 692 694 694 695 697 698 700 703 705 709 713 715 718 720 723 726 730 732 735 737 739 742 747 752 755 757 762 767 767 765 764 766 767 767 767 767 768 768 769 771 773 774 775
655 663 667 676 685 687 694 704 707 712 717 710 697 686 677 674 670 673 695 706 697 693 695 693 691 689 686 689 691 689 691 701 710 706 693 688 688 687 688 690 688 688 689 690 692 692 694 696 698 700 704 707 709 712 714 717 721 724 726 727 726 729 732 735 738 741 745 750 755 761 765 763 759 760 762 763 763 763 763 764 765 766 768 770 771 773
655 663 666 675 685 687 694 708 715 717 718 709 696 684 677 675 668 670 698 717 703 693 695 692 691 692 690 691 691 689 697 712 717 707 694 690 690 688 688 690 688 687 688 689 690 691 692 695 697 700 703 706 708 711 713 716 719 721 724 725 725 727 730 734 739 740 741 744 748 756 760 758 755 756 759 759 759 759 760 761 762 764 766 768 769 770
664 672 678 686 693 695 700 710 711 710 709 702 693 685 679 672 665 683 723 733 707 695 697 692 691 694 691 691 692 694 703 713 713 704 693 689 689 688 687 689 689 689 690 689 690 691 692 693 695 698 701 704 707 709 711 714 716 719 722 724 725 725 725 729 734 736 737 739 744 753 757 755 752 753 755 755 755 756 757 759 760 762 764 766 767 769
679 682 690 696 700 701 705 711 711 708 703 695 690 682 672 667 681 713 737 727 705 702 700 693 695 698 693 692 696 700 704 704 701 699 693 689 690 690 688 688 689 691 691 691 690 691 691 693 694 696 699 701 704 707 709 711 713 716 717 719 720 719 719 723 728 732 736 740 744 750 752 750 749 750 751 752 752 753 755 757 759 761 763 764 766 767
694 694 697 700 702 706 708 712 716 714 701 689 687 678 668 682 713 729 720 707 704 706 701 697 700 700 697 698 699 702 702 698 696 696 695 693 694 694 692 691 691 691 692 692 691 691 692 693 694 696 698 699 701 703 705 707 709 710 713 714 713 713 715 721 727 731 735 739 742 744 745 745 746 747 748 749 750 752 755 756 759 760 761 763 765 766
702 704 708 709 707 709 713 717 725 726 708 688 686 687 686 701 718 715 704 704 706 703 701 703 703 701 702 703 702 701 701 699 698 698 696 696 695 694 694 694 692 691 692 693 693 692 692 693 695 696 697 698 700 701 702 703 705 707 709 709 708 711 717 721 725 729 732 736 739 742 742 742 743 744 746 748 749 752 754 756 758 759 760 761 763 764
703 704 710 713 709 712 723 729 730 727 711 692 690 700 704 705 704 701 703 707 705 701 703 705 704 703 704 703 703 703 701 700 700 699 698 698 696 694 695 694 692 692 692 693 694 694 693 693 694 696 698 698 699 700 700 701 702 703 704 704 706 711 716 720 724 728 731 736 743 746 744 742 743 744 745 747 749 751 753 755 756 757 759 760 761 762
703 699 702 710 711 713 723 727 720 714 708 698 696 701 703 701 699 700 702 704 704 705 705 705 707 707 705 702 703 703 702 703 702 700 700 701 699 697 696 694 693 693 693 693 695 696 697 696 694 695 698 699 699 701 702 703 704 707 709 710 711 713 715 718 723 726 730 739 746 747 744 742 743 744 745 747 749 750 752 754 755 756 758 759 760 761
696 691 692 703 711 711 714 717 713 710 709 705 701 700 700 701 701 701 702 704 705 705 705 708 711 711 709 706 704 704 705 704 702 701 703 702 700 698 696 694 694 694 694 694 695 696 699 700 699 698 700 702 705 708 710 712 713 717 720 721 722 722 720 720 723 726 732 739 743 742 742 743 743 745 747 749 750 751 752 753 754 755 757 759 759 761
692 688 691 703 712 715 717 716 711 710 712 709 705 703 701 701 701 701 703 707 706 705 707 710 713 713 712 709 707 707 706 702 700 702 703 702 701 700 698 697 696 694 693 694 694 695 698 701 703 703 705 708 711 712 714 715 716 719 722 724 728 732 731 729 730 732 734 736 738 740 742 743 743 745 748 749 750 751 752 752 753 755 757 758 759 760
689 686 695 705 711 714 718 715 709 709 709 707 706 707 705 704 703 701 702 704 704 705 707 708 710 713 712 710 710 710 707 703 703 704 703 703 702 701 700 699 697 696 695 695 695 696 698 700 704 706 707 709 710 711 714 716 718 721 725 728 731 736 738 739 739 739 737 736 738 740 741 741 743 745 748 749 750 750 751 752 754 755 756 757 758 759
684 688 696 705 711 717 717 712 710 711 711 707 707 708 706 705 704 702 702 702 703 705 706 706 709 712 712 713 713 711 709 707 706 706 707 705 703 701 700 699 698 698 698 698 698 698 699 701 704 706 708 709 710 711 714 717 719 722 725 728 729 731 736 740 741 740 738 737 738 739 740 742 745 746 747 748 749 750 751 753 754 755 755 757 758 758
687 696 699 704 714 721 717 710 710 715 718 716 712 709 707 705 704 704 705 705 706 708 709 709 710 711 712 714 715 715 715 713 710 710 710 707 703 701 700 699 699 699 699 700 701 701 701 703 704 706 709 711 711 712 714 717 719 720 721 724 726 728 733 740 743 743 743 742 742 743 745 746 747 747 747 748 748 749 751 753 754 755 756 756 757 758
692 699 701 704 714 717 712 709 711 714 718 719 715 712 710 707 705 707 708 708 708 709 710 711 713 713 715 717 718 719 720 717 714 712 710 706 703 701 699 698 699 699 699 700 701 702 704 706 707 707 711 713 713 714 715 717 720 721 722 726 729 729 733 742 747 747 745 745 746 747 747 746 746 746 746 747 747 749 750 752 754 755 755 756 756 757